Hlavní strana
METAR-TAF:

METAR-TAF

Letiště :

Barrancabermeja, Kolumbie

zeměpisná šířka: 07-01N, zeměpisná délka: 073-48W, výška: 126 m

Aktuální stav počasí

Zpráva byla vytvořena před 9 hodinami a 12 minutami, v 14:00 UTC
Západojihozápadní vítr 3 kt
Teplota 28°C
Vlhkost vzduchu 79%
Tlak 1009 hPa
Viditelnost 10 km a více
Skoro jasno ve výšce 1700 ft
Polojasno ve výšce 20000 ft

METAR: SKEJ 121400Z 24003KT 9999 FEW017 SCT200 28/24 Q1009 RMK A2980

Čas: 18:12 (23:12 UTC)


TAF: chybějící

Stav a předpovědi počasí z více než 4 000 letišť (zprávy METAR a TAF).

Červené a žluté tečky na mapě představují dostupné meteorologické stanice.

Když kurzor umístíte na tečku, zobrazí se název stanice.

Pak kliknutím zobrazíte stav a předpověď počasí.

Chcete-li změnit mapu, kliknutím na zelené tlačítko se znaménkem +mapu přiblížíte, kliknutím na zelené tlačítko se znaménkem – mapu oddálíte a kliknutím na zelené šipky přejdete na sousední mapy.


METAR-TAF: